timestamp,wind_dir_avg,wind_spd_avg,wind_spd_max_dir,wind_spd_gust,battery_voltage,lat,long
2023-05-28 00:04:00+00:00,345.0,6.74,343.0,7.81,12.97,47.59359,-54.27349
2023-05-28 00:14:01+00:00,341.0,5.82,344.0,6.49,12.49,47.59359,-54.27349
2023-05-28 00:24:01+00:00,343.0,5.55,345.0,6.09,12.49,47.59359,-54.27349
2023-05-28 00:34:01+00:00,343.0,7.48,349.0,8.68,12.49,47.59359,-54.27349
2023-05-28 00:44:01+00:00,359.0,6.72,2.0,8.02,12.49,47.59359,-54.27349
2023-05-28 00:54:01+00:00,339.0,5.29,314.0,7.34,12.49,47.59359,-54.27349
2023-05-28 01:04:01+00:00,345.0,4.92,1.0,7.22,12.49,47.59359,-54.27349
2023-05-28 01:14:00+00:00,339.0,5.08,339.0,5.39,12.41,47.59359,-54.27349
2023-05-28 01:24:00+00:00,329.0,4.2,326.0,4.97,12.41,47.59359,-54.27349
2023-05-28 01:34:00+00:00,327.0,4.8,325.0,5.5,12.41,47.59359,-54.27349
2023-05-28 01:44:00+00:00,344.0,6.15,339.0,7.19,12.41,47.59359,-54.27349
2023-05-28 01:54:00+00:00,346.0,4.95,345.0,5.62,12.41,47.59359,-54.27349
2023-05-28 02:04:00+00:00,346.0,4.28,346.0,4.52,12.41,47.59359,-54.27349
2023-05-28 02:14:00+00:00,328.0,3.24,325.0,3.5,12.33,47.59359,-54.27349
2023-05-28 02:24:00+00:00,313.0,2.53,319.0,3.26,12.33,47.59359,-54.27349
2023-05-28 02:34:00+00:00,321.0,2.76,321.0,3.02,12.33,47.59359,-54.27349
2023-05-28 02:44:00+00:00,309.0,2.72,308.0,3.09,12.33,47.59359,-54.27349
2023-05-28 02:54:00+00:00,316.0,2.82,322.0,3.15,12.33,47.59359,-54.27349
2023-05-28 03:04:00+00:00,327.0,4.23,327.0,4.85,12.33,47.59359,-54.27349
2023-05-28 03:14:01+00:00,323.0,4.63,325.0,4.96,12.33,47.59359,-54.27349
2023-05-28 03:24:01+00:00,311.0,4.54,313.0,4.83,12.33,47.59359,-54.27349
2023-05-28 03:34:01+00:00,292.0,5.38,293.0,6.12,12.33,47.59359,-54.27349
2023-05-28 03:44:01+00:00,306.0,6.32,305.0,7.53,12.33,47.59359,-54.27349
2023-05-28 03:54:01+00:00,307.0,6.93,302.0,7.52,12.33,47.59359,-54.27349
2023-05-28 04:04:01+00:00,313.0,6.31,317.0,7.47,12.33,47.59359,-54.27349
2023-05-28 04:14:01+00:00,309.0,6.34,306.0,7.87,12.33,47.59359,-54.27349
2023-05-28 04:24:01+00:00,316.0,5.94,317.0,7.09,12.33,47.59359,-54.27349
2023-05-28 04:34:01+00:00,312.0,6.57,310.0,7.23,12.33,47.59359,-54.27349
2023-05-28 04:44:01+00:00,306.0,5.63,304.0,6.82,12.33,47.59359,-54.27349
2023-05-28 04:54:01+00:00,288.0,5.72,286.0,7.37,12.33,47.59359,-54.27349
2023-05-28 05:04:01+00:00,321.0,7.44,315.0,8.75,12.33,47.59359,-54.27349
2023-05-28 05:14:00+00:00,310.0,4.84,313.0,5.97,12.33,47.59359,-54.27349
2023-05-28 05:24:00+00:00,308.0,6.59,305.0,7.89,12.33,47.59359,-54.27349
2023-05-28 05:34:00+00:00,307.0,7.08,312.0,8.49,12.33,47.59359,-54.27349
2023-05-28 05:44:00+00:00,302.0,5.13,308.0,6.63,12.33,47.59359,-54.27349
2023-05-28 05:54:00+00:00,315.0,5.95,320.0,6.79,12.33,47.59359,-54.27349
2023-05-28 06:04:00+00:00,306.0,4.29,301.0,5.13,12.33,47.59359,-54.27349
2023-05-28 06:14:00+00:00,307.0,5.04,310.0,6.99,12.25,47.59359,-54.27349
2023-05-28 06:24:00+00:00,305.0,5.9,305.0,6.62,12.25,47.59359,-54.27349
2023-05-28 06:34:00+00:00,289.0,4.83,288.0,5.41,12.25,47.59359,-54.27349
2023-05-28 06:44:00+00:00,272.0,5.03,276.0,5.33,12.25,47.59359,-54.27349
2023-05-28 06:54:00+00:00,264.0,5.16,263.0,5.55,12.25,47.59359,-54.27349
2023-05-28 07:04:00+00:00,259.0,5.55,262.0,5.81,12.25,47.59359,-54.27349
2023-05-28 07:14:00+00:00,261.0,5.52,260.0,6.13,12.25,47.59359,-54.27349
2023-05-28 07:24:00+00:00,254.0,4.88,255.0,5.32,12.25,47.59359,-54.27349
2023-05-28 07:34:00+00:00,252.0,5.1,254.0,5.64,12.25,47.59359,-54.27349
2023-05-28 07:44:00+00:00,254.0,4.35,256.0,4.88,12.25,47.59359,-54.27349
2023-05-28 07:54:00+00:00,260.0,4.6,261.0,5.24,12.25,47.59359,-54.27349
2023-05-28 08:04:00+00:00,266.0,5.76,267.0,6.35,12.25,47.59359,-54.27349
2023-05-28 08:14:01+00:00,272.0,4.93,270.0,5.2,12.25,47.59359,-54.27349
2023-05-28 08:24:01+00:00,271.0,6.35,269.0,7.5,12.25,47.59359,-54.27349
2023-05-28 08:34:01+00:00,271.0,5.79,272.0,6.22,12.25,47.59359,-54.27349
2023-05-28 08:44:01+00:00,280.0,5.2,283.0,5.62,12.25,47.59359,-54.27349
2023-05-28 08:54:01+00:00,278.0,5.23,275.0,5.68,12.25,47.59359,-54.27349
2023-05-28 09:04:01+00:00,275.0,4.94,275.0,6.75,12.25,47.59359,-54.27349
2023-05-28 09:14:00+00:00,279.0,4.21,280.0,4.5,12.73,47.59359,-54.27349
2023-05-28 09:24:00+00:00,288.0,3.5,281.0,5.24,12.73,47.59359,-54.27349
2023-05-28 09:34:00+00:00,272.0,4.64,273.0,6.22,12.73,47.59359,-54.27349
2023-05-28 09:44:00+00:00,253.0,4.29,260.0,6.51,12.73,47.59359,-54.27349
2023-05-28 09:54:00+00:00,259.0,3.11,262.0,4.39,12.73,47.59359,-54.27349
2023-05-28 10:04:00+00:00,248.0,3.24,250.0,3.54,12.73,47.59359,-54.27349
2023-05-28 10:14:01+00:00,238.0,4.67,238.0,5.02,13.29,47.59359,-54.27349
2023-05-28 10:24:01+00:00,231.0,5.04,234.0,5.93,13.29,47.59359,-54.27349
2023-05-28 10:34:01+00:00,211.0,5.15,230.0,6.9,13.29,47.59359,-54.27349
2023-05-28 10:44:01+00:00,227.0,5.08,229.0,6.23,13.29,47.59359,-54.27349
2023-05-28 10:54:01+00:00,229.0,5.07,232.0,5.91,13.29,47.59359,-54.27349
2023-05-28 11:04:01+00:00,227.0,4.44,229.0,5.2,13.29,47.59359,-54.27349
2023-05-28 11:14:00+00:00,219.0,5.48,219.0,6.12,13.68,47.59359,-54.27349
2023-05-28 11:24:00+00:00,195.0,5.15,209.0,6.16,13.68,47.59359,-54.27349
2023-05-28 11:34:00+00:00,217.0,7.62,218.0,8.57,13.68,47.59359,-54.27349
2023-05-28 11:44:00+00:00,207.0,7.97,213.0,9.38,13.68,47.59359,-54.27349
2023-05-28 11:54:00+00:00,201.0,8.25,203.0,9.37,13.68,47.59359,-54.27349
2023-05-28 12:04:00+00:00,210.0,7.07,217.0,8.1,13.68,47.59359,-54.27349
2023-05-28 12:14:00+00:00,205.0,7.59,211.0,8.96,13.6,47.59359,-54.27349
2023-05-28 12:24:00+00:00,208.0,6.82,221.0,8.17,13.6,47.59359,-54.27349
2023-05-28 12:34:00+00:00,208.0,7.57,208.0,9.32,13.6,47.59359,-54.27349
2023-05-28 12:44:00+00:00,206.0,10.15,215.0,11.58,13.6,47.59359,-54.27349
2023-05-28 12:54:00+00:00,204.0,10.47,205.0,11.96,13.6,47.59359,-54.27349
2023-05-28 13:04:00+00:00,206.0,9.44,200.0,11.31,13.6,47.59359,-54.27349
2023-05-28 13:14:00+00:00,203.0,10.01,216.0,11.78,13.6,47.59359,-54.27349
2023-05-28 13:24:00+00:00,203.0,10.06,213.0,11.46,13.6,47.59359,-54.27349
2023-05-28 13:34:00+00:00,204.0,8.93,199.0,10.06,13.6,47.59359,-54.27349
2023-05-28 13:44:00+00:00,205.0,8.83,209.0,9.58,13.6,47.59359,-54.27349
2023-05-28 13:54:00+00:00,202.0,8.47,204.0,9.34,13.6,47.59359,-54.27349
2023-05-28 14:04:00+00:00,203.0,8.92,205.0,10.08,13.6,47.59359,-54.27349
2023-05-28 14:14:00+00:00,203.0,9.57,212.0,11.58,13.68,47.59359,-54.27349
2023-05-28 14:24:00+00:00,216.0,11.21,217.0,13.01,13.68,47.59359,-54.27349
2023-05-28 14:34:00+00:00,206.0,9.81,209.0,10.64,13.68,47.59359,-54.27349
2023-05-28 14:44:00+00:00,207.0,10.43,214.0,11.63,13.68,47.59359,-54.27349
2023-05-28 14:54:00+00:00,204.0,10.89,205.0,12.91,13.68,47.59359,-54.27349
2023-05-28 15:04:00+00:00,211.0,10.0,204.0,11.02,13.68,47.59359,-54.27349
2023-05-28 15:14:00+00:00,207.0,8.4,205.0,9.61,13.53,47.59359,-54.27349
2023-05-28 15:24:00+00:00,215.0,8.6,218.0,10.52,13.53,47.59359,-54.27349
2023-05-28 15:34:00+00:00,219.0,9.66,215.0,11.64,13.53,47.59359,-54.27349
2023-05-28 15:44:00+00:00,215.0,10.55,217.0,12.81,13.53,47.59359,-54.27349
2023-05-28 15:54:00+00:00,209.0,9.45,215.0,10.74,13.53,47.59359,-54.27349
2023-05-28 16:04:00+00:00,214.0,9.83,212.0,11.23,13.53,47.59359,-54.27349
2023-05-28 16:14:00+00:00,204.0,9.39,213.0,11.3,13.6,47.59359,-54.27349
2023-05-28 16:24:00+00:00,210.0,11.44,231.0,13.69,13.6,47.59359,-54.27349
2023-05-28 16:34:00+00:00,213.0,11.47,216.0,13.8,13.6,47.59359,-54.27349
2023-05-28 16:44:00+00:00,211.0,11.07,216.0,13.04,13.6,47.59359,-54.27349
2023-05-28 16:54:00+00:00,213.0,10.17,235.0,14.88,13.6,47.59359,-54.27349
2023-05-28 17:04:00+00:00,218.0,10.51,229.0,14.41,13.6,47.59359,-54.27349
2023-05-28 17:14:00+00:00,211.0,12.32,215.0,14.06,13.44,47.59359,-54.27349
2023-05-28 17:24:00+00:00,203.0,10.81,214.0,12.67,13.44,47.59359,-54.27349
2023-05-28 17:34:00+00:00,203.0,10.8,212.0,13.22,13.44,47.59359,-54.27349
2023-05-28 17:44:00+00:00,195.0,10.0,199.0,11.37,13.44,47.59359,-54.27349
2023-05-28 17:54:00+00:00,196.0,9.66,199.0,11.02,13.44,47.59359,-54.27349
2023-05-28 18:04:00+00:00,204.0,8.37,202.0,9.95,13.44,47.59359,-54.27349
2023-05-28 18:14:00+00:00,197.0,8.95,198.0,10.07,13.44,47.59359,-54.27349
2023-05-28 18:24:00+00:00,202.0,8.61,203.0,9.61,13.44,47.59359,-54.27349
2023-05-28 18:34:00+00:00,195.0,9.96,197.0,11.38,13.44,47.59359,-54.27349
2023-05-28 18:44:00+00:00,198.0,10.27,199.0,11.56,13.44,47.59359,-54.27349
2023-05-28 18:54:00+00:00,194.0,11.31,197.0,12.81,13.44,47.59359,-54.27349
2023-05-28 19:04:00+00:00,201.0,10.77,210.0,13.15,13.44,47.59359,-54.27349
2023-05-28 19:14:00+00:00,200.0,9.4,216.0,11.93,13.68,47.59359,-54.27349
2023-05-28 19:24:00+00:00,205.0,10.55,216.0,13.45,13.68,47.59359,-54.27349
2023-05-28 19:34:00+00:00,210.0,11.59,216.0,13.3,13.68,47.59359,-54.27349
2023-05-28 19:44:00+00:00,193.0,10.56,200.0,11.93,13.68,47.59359,-54.27349
2023-05-28 19:54:00+00:00,199.0,9.77,201.0,11.03,13.68,47.59359,-54.27349
2023-05-28 20:04:00+00:00,194.0,11.52,198.0,13.07,13.68,47.59359,-54.27349
2023-05-28 20:14:00+00:00,204.0,9.23,220.0,11.55,13.44,47.59359,-54.27349
2023-05-28 20:24:00+00:00,209.0,7.69,205.0,9.89,13.44,47.59359,-54.27349
2023-05-28 20:34:00+00:00,210.0,10.53,221.0,12.54,13.44,47.59359,-54.27349
2023-05-28 20:44:00+00:00,197.0,10.37,205.0,12.9,13.44,47.59359,-54.27349
2023-05-28 20:54:00+00:00,206.0,8.47,204.0,10.07,13.44,47.59359,-54.27349
2023-05-28 21:04:00+00:00,209.0,10.1,216.0,12.21,13.44,47.59359,-54.27349
2023-05-28 21:14:00+00:00,201.0,9.36,201.0,11.06,13.6,47.59359,-54.27349
2023-05-28 21:24:00+00:00,195.0,9.69,213.0,11.59,13.6,47.59359,-54.27349
2023-05-28 21:34:00+00:00,195.0,10.06,198.0,11.6,13.6,47.59359,-54.27349
2023-05-28 21:44:00+00:00,194.0,9.86,211.0,11.55,13.6,47.59359,-54.27349
2023-05-28 21:54:00+00:00,192.0,11.37,205.0,12.75,13.6,47.59359,-54.27349
2023-05-28 22:04:00+00:00,195.0,9.67,198.0,10.86,13.6,47.59359,-54.27349
2023-05-28 22:14:00+00:00,191.0,10.66,198.0,11.86,13.05,47.59359,-54.27349
2023-05-28 22:24:00+00:00,203.0,10.1,216.0,12.71,13.05,47.59359,-54.27349
2023-05-28 22:34:00+00:00,193.0,9.87,190.0,11.26,13.05,47.59359,-54.27349
2023-05-28 22:44:00+00:00,195.0,9.06,202.0,10.14,13.05,47.59359,-54.27349
2023-05-28 22:54:00+00:00,201.0,9.27,204.0,10.31,13.05,47.59359,-54.27349
2023-05-28 23:04:00+00:00,198.0,10.38,199.0,11.65,13.05,47.59359,-54.27349
2023-05-28 23:14:00+00:00,193.0,10.41,191.0,12.76,12.49,47.59359,-54.27349
2023-05-28 23:24:00+00:00,204.0,9.78,217.0,11.93,12.49,47.59359,-54.27349
2023-05-28 23:34:00+00:00,205.0,10.93,216.0,12.67,12.49,47.59359,-54.27349
2023-05-28 23:44:00+00:00,203.0,9.94,217.0,11.94,12.49,47.59359,-54.27349
2023-05-28 23:54:00+00:00,199.0,9.21,211.0,11.91,12.49,47.59359,-54.27349
